| time (UTC) | temp F | wind direction | speed knots | gust knots | rain 1hr in | rain 24hr in | rain mn in | humidity % | barometer mb |
| 20260906201017 | 92 | 156 | 7.8 | 14.8 | 0.00 | 0.05 | 0.00 | 45 | 1015.4 |
| 20260906200517 | 92 | 265 | 5.2 | 14.8 | 0.00 | 0.05 | 0.00 | 45 | 1015.2 |
| 20260906200032 | 92 | 137 | 7.8 | 15.6 | 0.00 | 0.05 | 0.00 | 45 | 1015.3 |
| 20260906195518 | 92 | 153 | 5.2 | 18.2 | 0.00 | 0.05 | 0.00 | 46 | 1015.2 |
| 20260906195017 | 91 | 190 | 7.8 | 18.2 | 0.00 | 0.05 | 0.00 | 46 | 1015.4 |
| 20260906194531 | 91 | 147 | 6.1 | 14.8 | 0.00 | 0.05 | 0.00 | 48 | 1015.4 |
| 20260906194014 | 91 | 169 | 7.0 | 13.0 | 0.00 | 0.05 | 0.00 | 47 | 1015.6 |
| 20260906193515 | 91 | 175 | 6.1 | 13.0 | 0.00 | 0.05 | 0.00 | 47 | 1015.7 |
| 20260906193030 | 90 | 96 | 6.1 | 16.5 | 0.00 | 0.05 | 0.00 | 48 | 1015.8 |
| 20260906192519 | 90 | 142 | 8.7 | 16.5 | 0.00 | 0.05 | 0.00 | 49 | 1016.0 |
| 20260906192017 | 90 | 119 | 5.2 | 11.3 | 0.00 | 0.05 | 0.00 | 52 | 1016.1 |
| 20260906191531 | 89 | 109 | 5.2 | 13.0 | 0.00 | 0.05 | 0.00 | 51 | 1016.2 |
| 20260906191018 | 89 | 178 | 6.1 | 13.0 | 0.00 | 0.05 | 0.00 | 52 | 1016.2 |
| 20260906190518 | 88 | 69 | 7.0 | 10.4 | 0.00 | 0.05 | 0.00 | 53 | 1016.3 |
| 20260906190035 | 88 | 69 | 2.6 | 8.7 | 0.00 | 0.05 | 0.00 | 53 | 1016.4 |
| 20260906185519 | 88 | 155 | 4.3 | 10.4 | 0.00 | 0.05 | 0.00 | 54 | 1016.5 |
| 20260906185016 | 88 | 80 | 3.5 | 10.4 | 0.00 | 0.05 | 0.00 | 56 | 1016.6 |
| 20260906184530 | 87 | 105 | 4.3 | 10.4 | 0.00 | 0.05 | 0.00 | 56 | 1016.7 |
| 20260906184014 | 87 | 103 | 5.2 | 10.4 | 0.00 | 0.05 | 0.00 | 56 | 1016.9 |
| 20260906183514 | 87 | 65 | 3.5 | 8.7 | 0.00 | 0.05 | 0.00 | 57 | 1017.0 |
| 20260906183042 | 87 | 74 | 3.5 | 8.7 | 0.00 | 0.05 | 0.00 | 57 | 1017.2 |
| 20260906182514 | 86 | 121 | 3.5 | 10.4 | 0.00 | 0.05 | 0.00 | 57 | 1017.3 |
| 20260906182017 | 86 | 196 | 4.3 | 12.2 | 0.00 | 0.05 | 0.00 | 56 | 1017.3 |
| 20260906181531 | 86 | 66 | 7.0 | 12.2 | 0.00 | 0.05 | 0.00 | 58 | 1017.3 |
| 20260906181017 | 85 | 46 | 1.7 | 11.3 | 0.00 | 0.05 | 0.00 | 59 | 1017.4 |
| 20260906180519 | 85 | 110 | 6.1 | 11.3 | 0.00 | 0.05 | 0.00 | 59 | 1017.5 |
| 20260906180031 | 84 | 113 | 6.1 | 11.3 | 0.00 | 0.05 | 0.00 | 60 | 1017.5 |
| 20260906175516 | 84 | 103 | 6.1 | 10.4 | 0.00 | 0.05 | 0.00 | 63 | 1017.6 |
| 20260906175016 | 83 | 80 | 4.3 | 9.6 | 0.00 | 0.05 | 0.00 | 63 | 1017.7 |
| 20260906174532 | 83 | 96 | 4.3 | 8.7 | 0.00 | 0.05 | 0.00 | 65 | 1017.8 |
| 20260906174014 | 83 | 92 | 2.6 | 8.7 | 0.00 | 0.05 | 0.00 | 64 | 1017.9 |
| 20260906173514 | 83 | 91 | 2.6 | 10.4 | 0.00 | 0.05 | 0.00 | 65 | 1018.0 |
| 20260906173028 | 83 | 99 | 2.6 | 10.4 | 0.00 | 0.05 | 0.00 | 65 | 1018.2 |
| 20260906172515 | 83 | 84 | 3.5 | 9.6 | 0.00 | 0.05 | 0.00 | 64 | 1018.4 |
| 20260906172015 | 83 | 90 | 3.5 | 9.6 | 0.00 | 0.05 | 0.00 | 65 | 1018.4 |
| 20260906171528 | 83 | 43 | 2.6 | 9.6 | 0.00 | 0.05 | 0.00 | 64 | 1018.5 |
| 20260906171016 | 83 | 75 | 2.6 | 8.7 | 0.00 | 0.05 | 0.00 | 65 | 1018.5 |
| 20260906170516 | 83 | 122 | 3.5 | 9.6 | 0.00 | 0.05 | 0.00 | 65 | 1018.6 |
| 20260906170033 | 83 | 61 | 3.5 | 9.6 | 0.00 | 0.05 | 0.00 | 65 | 1018.7 |
| 20260906165516 | 83 | 64 | 3.5 | 10.4 | 0.00 | 0.05 | 0.00 | 66 | 1018.8 |
| 20260906165017 | 83 | 36 | 3.5 | 10.4 | 0.00 | 0.05 | 0.00 | 65 | 1018.8 |
| 20260906164532 | 83 | 109 | 4.3 | 11.3 | 0.00 | 0.05 | 0.00 | 65 | 1018.9 |
| 20260906164015 | 83 | 148 | 4.3 | 11.3 | 0.00 | 0.05 | 0.00 | 65 | 1019.0 |
| 20260906163516 | 83 | 54 | 4.3 | 12.2 | 0.00 | 0.05 | 0.00 | 64 | 1019.0 |
| 20260906163030 | 83 | 61 | 4.3 | 13.0 | 0.00 | 0.05 | 0.00 | 64 | 1019.0 |
| 20260906162514 | 83 | 37 | 6.1 | 13.0 | 0.00 | 0.05 | 0.00 | 65 | 1019.1 |
| 20260906162018 | 83 | 70 | 5.2 | 11.3 | 0.00 | 0.05 | 0.00 | 65 | 1019.1 |
| 20260906161533 | 82 | 97 | 4.3 | 12.2 | 0.00 | 0.05 | 0.00 | 66 | 1019.0 |
| 20260906161013 | 82 | 121 | 5.2 | 12.2 | 0.00 | 0.05 | 0.00 | 66 | 1018.9 |
| 20260906160516 | 82 | 40 | 7.0 | 17.4 | 0.00 | 0.05 | 0.00 | 67 | 1018.9 |
| 20260906160030 | 82 | 46 | 8.7 | 17.4 | 0.00 | 0.05 | 0.00 | 66 | 1018.9 |
| 20260906155517 | 82 | 19 | 10.4 | 16.5 | 0.00 | 0.05 | 0.00 | 66 | 1018.8 |
| 20260906155017 | 83 | 5 | 10.4 | 16.5 | 0.00 | 0.05 | 0.00 | 66 | 1018.8 |
| 20260906154529 | 82 | 108 | 6.1 | 16.5 | 0.00 | 0.05 | 0.00 | 66 | 1018.9 |
| 20260906154018 | 82 | 87 | 4.3 | 13.9 | 0.00 | 0.05 | 0.00 | 69 | 1018.9 |
| 20260906153517 | 81 | 52 | 6.1 | 20.0 | 0.00 | 0.05 | 0.00 | 69 | 1018.9 |
| 20260906153031 | 81 | 38 | 9.6 | 20.0 | 0.00 | 0.05 | 0.00 | 68 | 1018.9 |
| 20260906152513 | 81 | 38 | 7.0 | 15.6 | 0.00 | 0.05 | 0.00 | 69 | 1018.8 |
| 20260906152014 | 81 | 36 | 7.8 | 13.9 | 0.00 | 0.05 | 0.00 | 69 | 1018.8 |
| 20260906151529 | 81 | 76 | 6.1 | 16.5 | 0.00 | 0.05 | 0.00 | 70 | 1018.8 |
| 20260906151016 | 80 | 14 | 8.7 | 16.5 | 0.00 | 0.05 | 0.00 | 71 | 1018.8 |
| 20260906150516 | 80 | 19 | 8.7 | 15.6 | 0.00 | 0.05 | 0.00 | 71 | 1018.8 |
| 20260906150039 | 80 | 57 | 6.1 | 14.8 | 0.00 | 0.05 | 0.00 | 72 | 1018.9 |
| 20260906145516 | 79 | 46 | 7.0 | 16.5 | 0.00 | 0.05 | 0.00 | 73 | 1018.8 |
| 20260906145017 | 78 | 43 | 10.4 | 16.5 | 0.00 | 0.05 | 0.00 | 73 | 1018.8 |
| 20260906144530 | 78 | 34 | 7.8 | 15.6 | 0.00 | 0.05 | 0.00 | 73 | 1018.8 |
| 20260906144014 | 78 | 22 | 6.1 | 14.8 | 0.00 | 0.05 | 0.00 | 74 | 1018.7 |
| 20260906143515 | 78 | 46 | 9.6 | 13.9 | 0.00 | 0.05 | 0.00 | 74 | 1018.7 |
| 20260906143028 | 77 | 22 | 7.0 | 13.9 | 0.00 | 0.05 | 0.00 | 74 | 1018.7 |
| 20260906142513 | 77 | 9 | 7.8 | 14.8 | 0.00 | 0.05 | 0.00 | 74 | 1018.7 |
| 20260906142018 | 76 | 42 | 8.7 | 14.8 | 0.00 | 0.05 | 0.00 | 74 | 1018.7 |
| 20260906141529 | 76 | 51 | 5.2 | 15.6 | 0.00 | 0.05 | 0.00 | 74 | 1018.7 |
| 20260906141015 | 76 | 32 | 8.7 | 15.6 | 0.00 | 0.05 | 0.00 | 74 | 1018.6 |
| 20260906140516 | 75 | 53 | 7.8 | 12.2 | 0.00 | 0.05 | 0.00 | 75 | 1018.5 |
| 20260906140028 | 75 | 37 | 6.1 | 16.5 | 0.00 | 0.05 | 0.00 | 76 | 1018.5 |
| 20260906135514 | 75 | 26 | 3.5 | 16.5 | 0.00 | 0.05 | 0.00 | 77 | 1018.5 |
| 20260906135014 | 74 | 11 | 11.3 | 16.5 | 0.00 | 0.05 | 0.00 | 80 | 1018.4 |
| 20260906134540 | 73 | 43 | 2.6 | 4.3 | 0.00 | 0.05 | 0.00 | 81 | 1018.0 |
| 20260906134014 | 73 | 52 | 0.0 | 2.6 | 0.00 | 0.05 | 0.00 | 81 | 1017.7 |
| 20260906133515 | 72 | 45 | 0.9 | 4.3 | 0.00 | 0.05 | 0.00 | 82 | 1017.5 |
| 20260906133048 | 72 | 64 | 0.9 | 6.1 | 0.00 | 0.05 | 0.00 | 84 | 1017.4 |
| 20260906132514 | 72 | 143 | 2.6 | 6.1 | 0.00 | 0.05 | 0.00 | 85 | 1017.3 |
| 20260906132017 | 71 | 168 | 1.7 | 3.5 | 0.00 | 0.05 | 0.00 | 86 | 1017.2 |
| 20260906131530 | 71 | 218 | 1.7 | 4.3 | 0.00 | 0.05 | 0.00 | 88 | 1017.2 |
| 20260906131021 | 70 | 182 | 1.7 | 5.2 | 0.00 | 0.05 | 0.00 | 88 | 1017.1 |
| 20260906130514 | 70 | 170 | 1.7 | 4.3 | 0.00 | 0.05 | 0.00 | 89 | 1017.0 |
| 20260906130031 | 70 | 221 | 1.7 | 3.5 | 0.00 | 0.05 | 0.00 | 90 | 1016.9 |
| 20260906125521 | 70 | 182 | 1.7 | 3.5 | 0.00 | 0.05 | 0.00 | 90 | 1016.8 |
| 20260906125020 | 69 | 182 | 0.9 | 3.5 | 0.00 | 0.05 | 0.00 | 91 | 1016.7 |
| 20260906124527 | 69 | 182 | 0.9 | 3.5 | 0.00 | 0.05 | 0.00 | 91 | 1016.7 |
| 20260906124017 | 69 | 182 | 0.9 | 3.5 | 0.00 | 0.05 | 0.00 | 91 | 1016.6 |
| 20260906123515 | 69 | 182 | 0.9 | 3.5 | 0.00 | 0.05 | 0.00 | 91 | 1016.5 |
| 20260906123032 | 69 | 182 | 0.9 | 3.5 | 0.00 | 0.05 | 0.00 | 92 | 1016.4 |
| 20260906122513 | 69 | 182 | 0.9 | 3.5 | 0.00 | 0.05 | 0.00 | 92 | 1016.3 |
| 20260906122016 | 68 | 182 | 1.7 | 3.5 | 0.00 | 0.05 | 0.00 | 92 | 1016.2 |
| 20260906121527 | 68 | 182 | 1.7 | 2.6 | 0.00 | 0.05 | 0.00 | 92 | 1016.2 |
| 20260906121015 | 68 | 182 | 1.7 | 2.6 | 0.00 | 0.05 | 0.00 | 92 | 1016.1 |
| 20260906120515 | 68 | 182 | 1.7 | 2.6 | 0.00 | 0.05 | 0.00 | 92 | 1016.1 |
| 20260906120027 | 68 | 182 | 0.9 | 3.5 | 0.00 | 0.05 | 0.00 | 93 | 1016.1 |
| 20260906115517 | 68 | 182 | 0.9 | 3.5 | 0.00 | 0.05 | 0.00 | 93 | 1016.1 |
| 20260906115015 | 68 | 182 | 1.7 | 2.6 | 0.00 | 0.05 | 0.00 | 93 | 1016.1 |
| 20260906114529 | 68 | 182 | 1.7 | 2.6 | 0.00 | 0.05 | 0.00 | 93 | 1016.0 |
| 20260906114014 | 68 | 182 | 0.9 | 2.6 | 0.00 | 0.05 | 0.00 | 93 | 1015.9 |
| 20260906113516 | 68 | 182 | 0.9 | 2.6 | 0.00 | 0.05 | 0.00 | 93 | 1015.9 |
| 20260906113034 | 68 | 182 | 0.9 | 2.6 | 0.00 | 0.05 | 0.00 | 93 | 1015.8 |
| 20260906112515 | 68 | 182 | 0.9 | 3.5 | 0.00 | 0.05 | 0.00 | 93 | 1015.7 |
| 20260906112014 | 68 | 182 | 0.9 | 3.5 | 0.00 | 0.05 | 0.00 | 93 | 1015.6 |
| 20260906111538 | 68 | 182 | 1.7 | 3.5 | 0.00 | 0.05 | 0.00 | 93 | 1015.6 |
| 20260906111015 | 68 | 182 | 1.7 | 3.5 | 0.00 | 0.05 | 0.00 | 93 | 1015.5 |
| 20260906110513 | 68 | 182 | 0.9 | 2.6 | 0.00 | 0.05 | 0.00 | 93 | 1015.5 |
| 20260906110032 | 68 | 182 | 0.9 | 2.6 | 0.00 | 0.05 | 0.00 | 93 | 1015.6 |
| 20260906105515 | 68 | 182 | 0.9 | 3.5 | 0.00 | 0.05 | 0.00 | 93 | 1015.6 |
| 20260906105015 | 68 | 182 | 1.7 | 3.5 | 0.00 | 0.05 | 0.00 | 93 | 1015.5 |
| 20260906104536 | 68 | 182 | 0.9 | 3.5 | 0.00 | 0.05 | 0.00 | 93 | 1015.4 |
| 20260906104014 | 68 | 182 | 0.9 | 2.6 | 0.00 | 0.05 | 0.00 | 93 | 1015.4 |
| 20260906103512 | 68 | 182 | 0.9 | 4.3 | 0.00 | 0.05 | 0.00 | 93 | 1015.3 |
| 20260906103033 | 68 | 182 | 1.7 | 4.3 | 0.00 | 0.05 | 0.00 | 93 | 1015.3 |
| 20260906102514 | 68 | 186 | 1.7 | 6.1 | 0.00 | 0.05 | 0.00 | 93 | 1015.3 |
| 20260906102015 | 68 | 186 | 2.6 | 6.1 | 0.00 | 0.05 | 0.00 | 93 | 1015.3 |
| 20260906101531 | 68 | 205 | 3.5 | 6.1 | 0.00 | 0.05 | 0.00 | 93 | 1015.4 |
| 20260906101015 | 68 | 171 | 3.5 | 5.2 | 0.00 | 0.05 | 0.00 | 93 | 1015.5 |
| 20260906100515 | 68 | 188 | 2.6 | 4.3 | 0.00 | 0.05 | 0.00 | 92 | 1015.5 |
| 20260906100026 | 68 | 190 | 1.7 | 4.3 | 0.00 | 0.05 | 0.00 | 92 | 1015.5 |
| 20260906095514 | 68 | 167 | 2.6 | 6.1 | 0.00 | 0.05 | 0.00 | 92 | 1015.6 |
| 20260906095015 | 68 | 167 | 2.6 | 6.1 | 0.00 | 0.05 | 0.00 | 92 | 1015.5 |
| 20260906094525 | 68 | 169 | 1.7 | 5.2 | 0.00 | 0.05 | 0.00 | 92 | 1015.5 |
| 20260906094016 | 68 | 169 | 2.6 | 4.3 | 0.00 | 0.05 | 0.00 | 92 | 1015.6 |
| 20260906093516 | 68 | 146 | 1.7 | 3.5 | 0.00 | 0.05 | 0.00 | 92 | 1015.6 |
| 20260906093024 | 69 | 146 | 1.7 | 3.5 | 0.00 | 0.05 | 0.00 | 92 | 1015.6 |
| 20260906092515 | 69 | 194 | 0.9 | 3.5 | 0.00 | 0.05 | 0.00 | 92 | 1015.6 |
| 20260906092012 | 69 | 194 | 0.9 | 3.5 | 0.00 | 0.05 | 0.00 | 92 | 1015.7 |
| 20260906091528 | 69 | 194 | 0.9 | 4.3 | 0.00 | 0.05 | 0.00 | 92 | 1015.7 |
| 20260906091015 | 69 | 194 | 0.9 | 5.2 | 0.00 | 0.05 | 0.00 | 92 | 1015.7 |
| 20260906090515 | 69 | 167 | 1.7 | 5.2 | 0.00 | 0.05 | 0.00 | 92 | 1015.7 |
| 20260906090027 | 69 | 178 | 0.9 | 2.6 | 0.00 | 0.05 | 0.00 | 92 | 1015.7 |
| 20260906085514 | 69 | 178 | 1.7 | 4.3 | 0.00 | 0.05 | 0.00 | 92 | 1015.7 |
| 20260906085014 | 69 | 178 | 0.9 | 4.3 | 0.00 | 0.05 | 0.00 | 91 | 1015.7 |
| 20260906084526 | 69 | 171 | 1.7 | 5.2 | 0.00 | 0.05 | 0.00 | 91 | 1015.7 |
| 20260906084015 | 69 | 179 | 1.7 | 5.2 | 0.00 | 0.05 | 0.00 | 91 | 1015.5 |
| 20260906083514 | 69 | 196 | 2.6 | 4.3 | 0.00 | 0.05 | 0.00 | 90 | 1015.5 |
| 20260906083024 | 69 | 169 | 1.7 | 4.3 | 0.00 | 0.05 | 0.00 | 90 | 1015.5 |
| 20260906082511 | 69 | 186 | 0.9 | 3.5 | 0.00 | 0.05 | 0.00 | 90 | 1015.5 |
| 20260906082013 | 70 | 186 | 1.7 | 3.5 | 0.00 | 0.05 | 0.00 | 90 | 1015.5 |
| 20260906081523 | 70 | 186 | 0.9 | 3.5 | 0.00 | 0.05 | 0.00 | 90 | 1015.5 |
| 20260906081013 | 70 | 186 | 0.9 | 3.5 | 0.00 | 0.05 | 0.00 | 89 | 1015.5 |
| 20260906080517 | 70 | 186 | 0.9 | 6.1 | 0.00 | 0.05 | 0.00 | 89 | 1015.5 |
| 20260906080025 | 70 | 169 | 2.6 | 6.1 | 0.00 | 0.05 | 0.00 | 88 | 1015.5 |
| 20260906075515 | 70 | 161 | 2.6 | 5.2 | 0.00 | 0.05 | 0.00 | 88 | 1015.5 |
| 20260906075012 | 70 | 180 | 1.7 | 5.2 | 0.00 | 0.05 | 0.00 | 87 | 1015.6 |
| 20260906074528 | 71 | 179 | 1.7 | 5.2 | 0.00 | 0.05 | 0.00 | 87 | 1015.5 |
| 20260906074016 | 71 | 162 | 2.6 | 6.1 | 0.00 | 0.05 | 0.00 | 86 | 1015.5 |
| 20260906073513 | 71 | 182 | 1.7 | 6.1 | 0.00 | 0.05 | 0.00 | 85 | 1015.6 |
| 20260906073032 | 72 | 164 | 1.7 | 5.2 | 0.00 | 0.05 | 0.00 | 84 | 1015.5 |
| 20260906072512 | 72 | 209 | 2.6 | 4.3 | 0.00 | 0.05 | 0.00 | 83 | 1015.5 |
| 20260906072011 | 73 | 150 | 1.7 | 4.3 | 0.00 | 0.05 | 0.00 | 82 | 1015.4 |
| 20260906071526 | 74 | 155 | 1.7 | 5.2 | 0.00 | 0.05 | 0.00 | 80 | 1015.4 |
| 20260906071013 | 74 | 155 | 1.7 | 7.0 | 0.00 | 0.05 | 0.00 | 78 | 1015.4 |
| 20260906070511 | 75 | 169 | 2.6 | 7.0 | 0.00 | 0.05 | 0.00 | 76 | 1015.4 |
| 20260906070025 | 77 | 191 | 3.5 | 7.0 | 0.00 | 0.05 | 0.00 | 74 | 1015.3 |
| 20260906065511 | 78 | 163 | 1.7 | 6.1 | 0.00 | 0.05 | 0.00 | 72 | 1015.2 |
| 20260906065012 | 78 | 158 | 1.7 | 6.1 | 0.00 | 0.05 | 0.00 | 69 | 1015.2 |
| 20260906064523 | 78 | 178 | 2.6 | 7.0 | 0.00 | 0.05 | 0.00 | 67 | 1015.2 |
| 20260906064014 | 78 | 159 | 2.6 | 7.0 | 0.00 | 0.05 | 0.00 | 66 | 1015.2 |
| 20260906063513 | 78 | 188 | 2.6 | 6.1 | 0.00 | 0.05 | 0.00 | 66 | 1015.2 |
| 20260906063023 | 78 | 148 | 2.6 | 7.8 | 0.00 | 0.05 | 0.00 | 67 | 1015.2 |
| 20260906062512 | 78 | 171 | 3.5 | 7.8 | 0.00 | 0.05 | 0.00 | 67 | 1015.3 |
| 20260906062013 | 78 | 188 | 4.3 | 7.8 | 0.00 | 0.05 | 0.00 | 67 | 1015.3 |
| 20260906061520 | 78 | 159 | 3.5 | 7.0 | 0.00 | 0.05 | 0.00 | 68 | 1015.2 |
| 20260906061011 | 78 | 173 | 1.7 | 7.0 | 0.00 | 0.05 | 0.00 | 68 | 1015.3 |
| 20260906060513 | 78 | 163 | 3.5 | 7.8 | 0.00 | 0.05 | 0.00 | 68 | 1015.5 |
| 20260906060020 | 78 | 144 | 3.5 | 7.8 | 0.00 | 0.05 | 0.00 | 67 | 1015.5 |
| 20260906055511 | 78 | 128 | 2.6 | 11.3 | 0.00 | 0.05 | 0.00 | 67 | 1015.4 |
| 20260906055011 | 79 | 167 | 2.6 | 11.3 | 0.00 | 0.05 | 0.00 | 67 | 1015.4 |
| 20260906054523 | 79 | 138 | 5.2 | 11.3 | 0.00 | 0.05 | 0.00 | 66 | 1015.4 |
| 20260906054012 | 79 | 107 | 4.3 | 11.3 | 0.00 | 0.05 | 0.00 | 66 | 1015.4 |
| 20260906053513 | 79 | 178 | 5.2 | 11.3 | 0.00 | 0.05 | 0.00 | 65 | 1015.4 |
| 20260906053021 | 79 | 135 | 4.3 | 9.6 | 0.00 | 0.05 | 0.00 | 65 | 1015.4 |
| 20260906052515 | 79 | 109 | 5.2 | 9.6 | 0.00 | 0.05 | 0.00 | 65 | 1015.3 |
| 20260906052013 | 79 | 162 | 7.0 | 10.4 | 0.00 | 0.05 | 0.00 | 65 | 1015.3 |
| 20260906051517 | 79 | 137 | 5.2 | 12.2 | 0.00 | 0.05 | 0.00 | 65 | 1015.2 |
| 20260906051020 | 79 | 157 | 6.1 | 12.2 | 0.00 | 0.05 | 0.00 | 65 | 1015.1 |
| 20260906050511 | 79 | 113 | 5.2 | 10.4 | 0.00 | 0.05 | 0.00 | 66 | 1015.1 |
| 20260906050023 | 79 | 109 | 6.1 | 9.6 | 0.00 | 0.05 | 0.00 | 66 | 1015.0 |
| 20260906045512 | 79 | 145 | 5.2 | 8.7 | 0.00 | 0.05 | 0.05 | 67 | 1015.1 |
| 20260906045010 | 78 | 124 | 5.2 | 8.7 | 0.00 | 0.05 | 0.05 | 67 | 1015.1 |
| 20260906044521 | 78 | 139 | 5.2 | 7.8 | 0.00 | 0.05 | 0.05 | 68 | 1015.1 |
| 20260906044012 | 78 | 151 | 4.3 | 7.0 | 0.00 | 0.05 | 0.05 | 68 | 1015.1 |
| 20260906043515 | 78 | 122 | 3.5 | 7.8 | 0.00 | 0.05 | 0.05 | 68 | 1015.2 |
| 20260906043020 | 78 | 144 | 3.5 | 7.8 | 0.00 | 0.05 | 0.05 | 68 | 1015.1 |
| 20260906042512 | 78 | 130 | 3.5 | 7.8 | 0.00 | 0.05 | 0.05 | 68 | 1015.0 |
| 20260906042014 | 79 | 138 | 4.3 | 7.8 | 0.00 | 0.05 | 0.05 | 68 | 1015.1 |
| 20260906041524 | 79 | 169 | 2.6 | 7.0 | 0.00 | 0.05 | 0.05 | 68 | 1015.1 |
| 20260906041016 | 79 | 174 | 3.5 | 7.8 | 0.00 | 0.05 | 0.05 | 67 | 1015.1 |
| 20260906040515 | 79 | 116 | 3.5 | 8.7 | 0.00 | 0.05 | 0.05 | 67 | 1015.1 |
| 20260906040021 | 79 | 157 | 4.3 | 8.7 | 0.00 | 0.05 | 0.05 | 67 | 1015.3 |
| 20260906035510 | 79 | 144 | 5.2 | 8.7 | 0.00 | 0.05 | 0.05 | 68 | 1015.2 |
| 20260906035012 | 78 | 138 | 3.5 | 8.7 | 0.00 | 0.05 | 0.05 | 68 | 1015.2 |
| 20260906034518 | 78 | 171 | 3.5 | 7.8 | 0.00 | 0.05 | 0.05 | 68 | 1015.1 |
| 20260906034011 | 78 | 153 | 3.5 | 8.7 | 0.00 | 0.05 | 0.05 | 68 | 1015.2 |
| 20260906033511 | 78 | 134 | 4.3 | 8.7 | 0.00 | 0.05 | 0.05 | 69 | 1015.3 |
| 20260906033019 | 78 | 131 | 3.5 | 7.8 | 0.00 | 0.05 | 0.05 | 69 | 1015.3 |
| 20260906032509 | 78 | 144 | 4.3 | 7.8 | 0.00 | 0.05 | 0.05 | 68 | 1015.3 |
| 20260906032011 | 79 | 173 | 2.6 | 8.7 | 0.00 | 0.05 | 0.05 | 68 | 1015.2 |
| 20260906031519 | 79 | 138 | 3.5 | 8.7 | 0.00 | 0.05 | 0.05 | 68 | 1015.2 |
| 20260906031013 | 79 | 170 | 3.5 | 8.7 | 0.00 | 0.05 | 0.05 | 68 | 1015.1 |
| 20260906030512 | 79 | 156 | 3.5 | 8.7 | 0.00 | 0.05 | 0.05 | 69 | 1015.0 |
| 20260906030020 | 79 | 128 | 3.5 | 7.8 | 0.00 | 0.05 | 0.05 | 69 | 1014.9 |
| 20260906025512 | 79 | 145 | 4.3 | 7.8 | 0.00 | 0.05 | 0.05 | 68 | 1015.0 |
| 20260906025011 | 79 | 146 | 3.5 | 7.8 | 0.00 | 0.05 | 0.05 | 68 | 1014.9 |
| 20260906024517 | 79 | 147 | 5.2 | 7.8 | 0.00 | 0.05 | 0.05 | 68 | 1014.8 |
| 20260906024013 | 80 | 142 | 3.5 | 9.6 | 0.00 | 0.05 | 0.05 | 67 | 1014.6 |
| 20260906023513 | 80 | 172 | 3.5 | 13.0 | 0.00 | 0.05 | 0.05 | 67 | 1014.5 |
| 20260906023021 | 80 | 155 | 5.2 | 13.0 | 0.00 | 0.05 | 0.05 | 67 | 1014.4 |
| 20260906022510 | 80 | 150 | 5.2 | 12.2 | 0.00 | 0.05 | 0.05 | 66 | 1014.3 |
| 20260906022010 | 80 | 175 | 6.1 | 11.3 | 0.00 | 0.05 | 0.05 | 66 | 1014.3 |
| 20260906021517 | 80 | 196 | 6.1 | 11.3 | 0.00 | 0.05 | 0.05 | 66 | 1014.2 |
| 20260906021019 | 80 | 175 | 5.2 | 11.3 | 0.00 | 0.05 | 0.05 | 66 | 1014.2 |
| 20260906020511 | 80 | 162 | 6.1 | 9.6 | 0.00 | 0.05 | 0.05 | 66 | 1014.2 |
| 20260906020018 | 80 | 155 | 3.5 | 12.2 | 0.00 | 0.05 | 0.05 | 66 | 1014.2 |
| 20260906015511 | 81 | 185 | 5.2 | 12.2 | 0.00 | 0.05 | 0.05 | 66 | 1014.0 |
| 20260906015011 | 81 | 134 | 6.1 | 10.4 | 0.00 | 0.05 | 0.05 | 66 | 1013.9 |
| 20260906014521 | 81 | 163 | 6.1 | 12.2 | 0.00 | 0.05 | 0.05 | 65 | 1013.9 |
| 20260906014011 | 82 | 150 | 6.1 | 12.2 | 0.00 | 0.05 | 0.05 | 65 | 1013.8 |
| 20260906013511 | 82 | 153 | 7.0 | 13.0 | 0.00 | 0.05 | 0.05 | 64 | 1013.9 |
| 20260906013026 | 82 | 144 | 7.8 | 13.0 | 0.00 | 0.05 | 0.05 | 64 | 1014.0 |
| 20260906012510 | 82 | 155 | 6.1 | 13.0 | 0.00 | 0.05 | 0.05 | 63 | 1013.8 |
| 20260906012010 | 83 | 138 | 7.0 | 17.4 | 0.00 | 0.05 | 0.05 | 63 | 1013.7 |
| 20260906011519 | 83 | 112 | 7.8 | 17.4 | 0.00 | 0.05 | 0.05 | 62 | 1013.8 |
| 20260906011011 | 83 | 126 | 7.0 | 13.9 | 0.00 | 0.05 | 0.05 | 62 | 1013.9 |
| 20260906010511 | 83 | 98 | 8.7 | 13.9 | 0.00 | 0.05 | 0.05 | 61 | 1013.9 |
| 20260906010018 | 83 | 78 | 7.0 | 12.2 | 0.00 | 0.05 | 0.05 | 61 | 1013.8 |
| 20260906005513 | 83 | 155 | 7.8 | 13.9 | 0.00 | 0.05 | 0.05 | 61 | 1013.8 |
| 20260906005012 | 83 | 180 | 7.8 | 13.9 | 0.00 | 0.05 | 0.05 | 62 | 1013.9 |
| 20260906004518 | 83 | 184 | 7.8 | 13.9 | 0.00 | 0.05 | 0.05 | 63 | 1013.9 |
| 20260906004012 | 83 | 130 | 6.1 | 14.8 | 0.00 | 0.05 | 0.05 | 63 | 1014.1 |
| 20260906003511 | 83 | 107 | 7.8 | 14.8 | 0.00 | 0.05 | 0.05 | 63 | 1014.1 |
| 20260906003014 | 83 | 155 | 7.0 | 14.8 | 0.00 | 0.05 | 0.05 | 62 | 1014.1 |
| 20260906002510 | 84 | 121 | 8.7 | 14.8 | 0.00 | 0.05 | 0.05 | 62 | 1014.0 |
| 20260906002010 | 84 | 159 | 7.0 | 15.6 | 0.00 | 0.05 | 0.05 | 62 | 1014.2 |
| 20260906001513 | 84 | 109 | 8.7 | 16.5 | 0.00 | 0.05 | 0.05 | 62 | 1014.2 |
| 20260906001009 | 84 | 166 | 8.7 | 20.0 | 0.00 | 0.05 | 0.05 | 61 | 1014.4 |
| 20260906000512 | 85 | 119 | 10.4 | 20.0 | 0.00 | 0.05 | 0.05 | 61 | 1014.5 |
| 20260906000016 | 85 | 119 | 9.6 | 19.1 | 0.00 | 0.05 | 0.05 | 60 | 1014.5 |
| 20260905235507 | 85 | 123 | 8.7 | 20.0 | 0.00 | 0.05 | 0.05 | 60 | 1014.5 |
| 20260905235008 | 85 | 105 | 11.3 | 20.0 | 0.00 | 0.05 | 0.05 | 60 | 1014.4 |
| 20260905234515 | 85 | 70 | 10.4 | 17.4 | 0.00 | 0.05 | 0.05 | 59 | 1014.4 |
| 20260905234010 | 84 | 121 | 9.6 | 17.4 | 0.00 | 0.05 | 0.05 | 58 | 1014.3 |
| 20260905233511 | 84 | 144 | 9.6 | 17.4 | 0.00 | 0.05 | 0.05 | 59 | 1014.3 |
| 20260905233017 | 84 | 85 | 7.8 | 17.4 | 0.00 | 0.05 | 0.05 | 60 | 1014.3 |
| 20260905232512 | 85 | 71 | 10.4 | 17.4 | 0.00 | 0.05 | 0.05 | 60 | 1014.1 |
| 20260905232008 | 85 | 86 | 8.7 | 21.7 | 0.00 | 0.05 | 0.05 | 60 | 1014.0 |
| 20260905231518 | 86 | 94 | 10.4 | 21.7 | 0.00 | 0.05 | 0.05 | 59 | 1013.9 |
| 20260905231010 | 85 | 96 | 11.3 | 19.1 | 0.00 | 0.05 | 0.05 | 60 | 1013.8 |
| 20260905230511 | 85 | 115 | 9.6 | 20.0 | 0.00 | 0.05 | 0.05 | 61 | 1013.7 |
| 20260905230016 | 85 | 94 | 9.6 | 23.5 | 0.00 | 0.05 | 0.05 | 61 | 1013.8 |
| 20260905225507 | 86 | 109 | 9.6 | 23.5 | 0.00 | 0.05 | 0.05 | 60 | 1013.9 |
| 20260905225008 | 87 | 86 | 8.7 | 21.7 | 0.00 | 0.05 | 0.05 | 58 | 1013.8 |
| 20260905224513 | 87 | 98 | 10.4 | 21.7 | 0.00 | 0.05 | 0.05 | 57 | 1013.8 |
| 20260905224007 | 88 | 90 | 7.8 | 18.2 | 0.00 | 0.05 | 0.05 | 56 | 1013.6 |
| 20260905223508 | 89 | 113 | 6.1 | 12.2 | 0.00 | 0.05 | 0.05 | 57 | 1013.5 |
| 20260905223014 | 89 | 101 | 3.5 | 10.4 | 0.00 | 0.05 | 0.05 | 59 | 1013.3 |
| 20260905222511 | 88 | 99 | 5.2 | 9.6 | 0.00 | 0.05 | 0.05 | 58 | 1013.2 |
| 20260905222008 | 88 | 66 | 2.6 | 9.6 | 0.00 | 0.05 | 0.05 | 57 | 1013.2 |
| 20260905221526 | 89 | 88 | 3.5 | 10.4 | 0.00 | 0.05 | 0.05 | 56 | 1013.3 |
| 20260905221008 | 90 | 57 | 3.5 | 10.4 | 0.00 | 0.05 | 0.05 | 56 | 1013.2 |
| 20260905220508 | 90 | 98 | 4.3 | 10.4 | 0.00 | 0.05 | 0.05 | 56 | 1013.0 |
| 20260905220011 | 90 | 60 | 4.3 | 18.2 | 0.00 | 0.05 | 0.05 | 57 | 1012.9 |
| 20260905215507 | 90 | 60 | 6.1 | 18.2 | 0.01 | 0.05 | 0.05 | 55 | 1012.9 |
| 20260905215007 | 89 | 155 | 5.2 | 12.2 | 0.01 | 0.05 | 0.05 | 57 | 1012.9 |
| 20260905214510 | 87 | 115 | 7.8 | 12.2 | 0.03 | 0.05 | 0.05 | 61 | 1012.7 |
| 20260905214008 | 85 | 136 | 7.0 | 11.3 | 0.04 | 0.05 | 0.05 | 65 | 1012.8 |
| 20260905213513 | 84 | 96 | 5.2 | 10.4 | 0.05 | 0.05 | 0.05 | 68 | 1012.8 |
| 20260905213012 | 84 | 102 | 6.1 | 10.4 | 0.05 | 0.05 | 0.05 | 66 | 1013.0 |
| 20260905212518 | 84 | 74 | 2.6 | 7.0 | 0.05 | 0.05 | 0.05 | 66 | 1013.3 |
| 20260905212018 | 84 | 149 | 4.3 | 7.0 | 0.05 | 0.05 | 0.05 | 69 | 1013.4 |
| 20260905211537 | 83 | 211 | 2.6 | 7.8 | 0.05 | 0.05 | 0.05 | 69 | 1013.6 |
| 20260905211016 | 83 | 55 | 2.6 | 7.8 | 0.05 | 0.05 | 0.05 | 70 | 1013.6 |
| 20260905210518 | 84 | 78 | 1.7 | 13.9 | 0.05 | 0.05 | 0.05 | 67 | 1013.5 |
| 20260905210036 | 84 | 45 | 4.3 | 14.8 | 0.05 | 0.05 | 0.05 | 63 | 1013.4 |
| 20260905205521 | 86 | 70 | 7.0 | 14.8 | 0.04 | 0.04 | 0.04 | 61 | 1013.6 |
| 20260905205019 | 87 | 146 | 6.1 | 12.2 | 0.04 | 0.04 | 0.04 | 58 | 1013.9 |
| 20260905204535 | 89 | 24 | 1.7 | 12.2 | 0.02 | 0.02 | 0.02 | 57 | 1014.1 |
| 20260905204017 | 92 | 355 | 6.1 | 13.0 | 0.01 | 0.01 | 0.01 | 54 | 1013.9 |
| 20260905203516 | 94 | 309 | 7.0 | 14.8 | 0.00 | 0.00 | 0.00 | 51 | 1013.8 |
| 20260905203032 | 95 | 208 | 4.3 | 14.8 | 0.00 | 0.00 | 0.00 | 44 | 1014.0 |
| 20260905202517 | 95 | 101 | 8.7 | 14.8 | 0.00 | 0.00 | 0.00 | 41 | 1013.8 |
| 20260905202015 | 95 | 60 | 5.2 | 13.9 | 0.00 | 0.00 | 0.00 | 42 | 1013.8 |
| 20260905201534 | 96 | 89 | 5.2 | 13.0 | 0.00 | 0.00 | 0.00 | 41 | 1013.8 |